Regional Weather Roundup
Issued by NWS

Home | Current Version | Previous Version | Graphics & Text | Print | Product List | Glossary Off
Versions: 1 2 3 4 5 6 7 8 9 10 11 12 13 14 15 16 17 18 19 20 21 22 23 24 25 26 27 28 29 30 31 32 33 34 35 36 37 38 39 40 41 42 43 44 45 46 47 48 49 50

000
ASUS43 KMKX 292111
RWRWI

WISCONSIN REGIONAL WEATHER ROUNDUP
NATIONAL WEATHER SERVICE MILWAUKEE/SULLIVAN WI
400 PM CDT MON JUN 29 2015

NOTE: "FAIR" INDICATES FEW OR NO CLOUDS BELOW 12,000 FEET WITH NO
SIGNIFICANT WEATHER AND/OR OBSTRUCTIONS TO VISIBILITY.

WIZ001-002-006>008-014>016-023>028-292200-
NORTHWEST WISCONSIN

CITY           SKY/WX    TMP DP  RH WIND       PRES   REMARKS
SUPERIOR ARPT  MOSUNNY   73  65  75 SW7       29.76S
ASHLAND        PTSUNNY   70  64  81 VRB5      29.77S
HAYWARD        CLOUDY    65  60  84 SW3       29.79S
SIREN          PTSUNNY   60  55  85 E3        29.81F
CUMBERLAND     TSTM      61  59  94 NW8       29.85R
RICE LAKE      TSTM      64  61  88 W14G20    29.88R
CHETEK         LGT RAIN  64  62  93 CALM      29.80R
LADYSMITH      CLOUDY    62  59  90 S3        29.81F
EAU CLAIRE     PTSUNNY   63  57  81 E20G25    29.79R
MENOMONIE      MOSUNNY   81  63  53 W9        29.77R HX  82
NEW RICHMOND   MOSUNNY   80  61  52 W16       29.78R HX  81
OSCEOLA        MOSUNNY   80  63  55 W14G21    29.80S HX  81
$$

WIZ003>005-009-010-017-018-292200-
NORTH CENTRAL WISCONSIN

CITY           SKY/WX    TMP DP  RH WIND       PRES   REMARKS
MANITOWISH WTR CLOUDY    60  60 100 S5        29.78F
ARBOR VITAE    HVY RAIN  62  60  92 N3        29.79F
WOODRUFF       HVY RAIN  62  60  92 N3        29.79F
RHINELANDER    TSTM      62  57  83 NW8       29.80R
EAGLE RIVER    CLOUDY   N/A N/A N/A N14       29.78R
LAND O LAKES   CLOUDY    62  59  92 CALM      29.79F
PHILLIPS       DRIZZLE   61  59  95 SW5       29.79F
TOMAHAWK       LGT RAIN  60  56  89 W6        29.79F
MEDFORD        RAIN      58  56  92 NW8       29.82F
MERRILL        PTSUNNY   67  57  72 NW14G33   29.81R
$$

WIZ029-030-035-036-043>047-292200-
CENTRAL WISCONSIN

CITY           SKY/WX    TMP DP  RH WIND       PRES   REMARKS
WAUSAU         MOSUNNY   76  59  55 W9        29.76S
MOSINEE        PTSUNNY   77  61  57 W9        29.78F
MARSHFIELD     MOSUNNY   76  60  57 NW8       29.79
STEVENS POINT  MOSUNNY   76  57  52 SW7       29.77F
WAUPACA        PTSUNNY   74  68  82 S7        29.78S
WAUTOMA        PTSUNNY   80  62  54 SW8       29.76F HX  81
WISC RAPIDS    MOSUNNY   79  59  50 NW8       29.78F HX  80
CAMP DOUGLAS   PTSUNNY   79  70  73 VRB5      29.77F HX  81
$$

WIZ011>013-019>022-031-037>040-048>050-292200-
NORTHEAST WISCONSIN

CITY           SKY/WX    TMP DP  RH WIND       PRES   REMARKS
ANTIGO         PTSUNNY   72  61  70 SE13      29.77F
SHAWANO        RAIN      68  64  86 SW3       29.78S
OCONTO         MOSUNNY   76  60  56 S8        29.75F
STURGEON BAY   SUNNY     75  55  50 S12G18    29.79F
GREEN BAY      PTSUNNY   78  60  53 SW13      29.76F
MANITOWOC      SUNNY     73  59  61 MISG      29.79F
APPLETON       PTSUNNY   73  57  56 SW13      29.78F
CLINTONVILLE   LGT RAIN N/A N/A N/A NE5       29.77F
OSHKOSH        MOSUNNY   77  62  59 S10       29.77F
$$

WIZ032>034-041-042-053>061-292200-
SOUTHWEST WISCONSIN

CITY           SKY/WX    TMP DP  RH WIND       PRES   REMARKS
LA CROSSE      MOSUNNY   80  62  54 NW6       29.77F HX  81
SPARTA         MOSUNNY   80  57  45 NW5       29.78F HX  80
VIROQUA        MOSUNNY   78  61  55 NW8       29.81S
BOSCOBEL       MOSUNNY   82  62  50 NW8       29.78F HX  83
PRAIRIE DU CHI MOSUNNY   80  60  50 NW5       29.78F HX  81
PLATTEVILLE    MOSUNNY   78  65  63 NW10      29.80F HX  80
$$

WIZ056-057-062-063-064-067-068-292200-
SOUTH CENTRAL WISCONSIN

CITY           SKY/WX    TMP DP  RH WIND       PRES   REMARKS
REEDSBURG      PTSUNNY   77  63  61 NW7       29.78S
BARABOO/DELLS  SUNNY     78  57  48 W9        29.78F
LONE ROCK      PTSUNNY   81  62  52 NW12      29.78F HX  82
MINERAL POINT  MOSUNNY   77  64  65 NW5       29.80F
MADISON        PTSUNNY   74  63  68 E12       29.78F
MIDDLETON      PTSUNNY   81  57  43 W7        29.78F HX  81
WATERTOWN      MOSUNNY   73  65  76 S5        29.78F
MONROE         SUNNY     77  61  57 NW3       29.79F
JANESVILLE     LGT RAIN  66  63  88 NE13      29.80R
$$

WIZ051-052-058>065-066-070>072-292200-
SOUTHEAST WISCONSIN

CITY           SKY/WX    TMP DP  RH WIND       PRES   REMARKS
MILWAUKEE      PTSUNNY   67  57  70 SE10      29.80F
WAUKESHA       MOSUNNY   66  63  88 S6        29.81F
MILWAUKEE/TIMM MOSUNNY   73  55  53 SE9       29.80F
RACINE         MOSUNNY   69  61  75 S8        29.82F
BURLINGTON     CLOUDY    69  60  73 CALM      29.80S
KENOSHA        PTSUNNY   70  62  76 SE8       29.80F
FOND DU LAC    MOSUNNY   75  64  68 SW9       29.78F
SHEBOYGAN      SUNNY     75  59  57 SE12      29.79S
WEST BEND      PTSUNNY   73  55  53 S7        29.78F
JUNEAU         MOSUNNY   73  61  67 S6        29.80F
$$

LSZ147-162-292200-
LAKE SUPERIOR

STATION/POSITION TIME  TEMP    WIND        PRES    WAVE
                       AIR SEA DIR/SP/G            HT/PER
                 (UTC) (F)     (DEG/KT/KT) (MB)    (FT/S)
W MID LAKE BUOY  2050   47 39  270/  4/  6 1007.6R   0
DEVILS ISLAND    2100   66     210/  3/  5 1007.7R
SAXON HARBOR     2000   67      CALM  /  4 1007.5S
$$

LMZ867-665-643>646-292200-
LAKE MICHIGAN

STATION/POSITION TIME  TEMP    WIND        PRES    WAVE
                       AIR SEA DIR/SP/G            HT/PER
                 (UTC) (F)     (DEG/KT/KT) (MB)    (FT/S)
CHAMBERS ISLAND  2000   76     150/  8/ 13 1007.8F
S GREEN BAY BUOY 2100   75 72  180/ 10/ 12 1009.2F
N MID LAKE BUOY  2050   58 51  230/  8/  8 1008.3F   1
NORTHPORT PIER   2000   71     150/  8/ 14 1008.1F
ALGOMA LAKESHORE 2010          210/  6/  7   N/A
KEWAUNEE LAKESHO 2000   63     190/  9/ 10 1008.4F
SHEBOYGAN LAKESH 2100   61     160/ 10/ 11 1009.0F
PORT WASHINGTON  2000   65     140/  6/  7 1010.2F
ATWATER BUOY     2100   62 62  140/  8/ 10 1010.3F
MILWAUKEE LAKESH 2000   62     100/  4/  4   N/A
KENOSHA   LAKESH 2100   65     140/  6/  7 1009.1F
$$

TC  - TEMPERATURE IN CELSIUS
VSB - VISIBILITY IN STATUTE MILES
WCI - WIND CHILL INDEX
HX  - HEAT INDEX



USA.gov is the U.S. government's official web portal to all federal, state and local government web resources and services.